N7DTY Weather Reports


time (UTC)temp
C
wind
direction
speed
KPH
gust
KPH
rain 1hr
cm
rain 24hr
cm
rain mn
cm
humidity
%
barometer
mb
20260831120007 11 355 3.2 8.0 0.00 0.00 0.00 88 1014.6
20260831114505 11 336 3.2 6.4 0.00 0.00 0.00 89 1014.6
20260831113001 11 355 1.6 4.8 0.00 0.00 0.00 88 1014.7
20260831111602 11 355 3.2 4.8 0.00 0.00 0.00 89 1014.9
20260831110106 11 355 1.6 4.8 0.00 0.00 0.00 88 1014.9
20260831104558 11 351 4.8 6.4 0.00 0.00 0.00 88 1015.0
20260831103055 11 317 3.2 4.8 0.00 0.00 0.00 89 1015.1
20260831101554 11 182 1.6 3.2 0.00 0.00 0.00 89 1015.2
20260831100051 11 182 0.0 0.0 0.00 0.00 0.00 89 1015.4
20260831094550 11 182 1.6 4.8 0.00 0.00 0.00 89 1015.4
20260831093049 11 182 1.6 4.8 0.00 0.00 0.00 89 1015.6
20260831091554 11 182 3.2 4.8 0.00 0.00 0.00 89 1016.0
20260831090043 11 182 1.6 3.2 0.00 0.00 0.00 89 1016.2
20260831084542 11 182 0.0 0.0 0.00 0.00 0.00 89 1016.3
20260831083042 11 182 0.0 0.0 0.00 0.00 0.00 88 1016.4
20260831081539 11 182 0.0 0.0 0.00 0.00 0.00 88 1016.5
20260831080037 12 182 0.0 0.0 0.00 0.00 0.00 88 1016.6
20260831074535 12 182 0.0 1.6 0.00 0.00 0.00 88 1016.7
20260831073031 12 182 0.0 1.6 0.00 0.00 0.00 87 1017.0
20260831071533 12 182 0.0 0.0 0.00 0.00 0.00 86 1017.0
20260831070030 12 182 0.0 1.6 0.00 0.00 0.00 86 1017.0
20260831064528 12 182 0.0 0.0 0.00 0.00 0.00 86 1017.0
20260831063027 12 182 0.0 0.0 0.00 0.00 0.00 85 1017.2
20260831061526 12 182 0.0 1.6 0.00 0.00 0.00 86 1017.3
20260831060026 12 182 0.0 1.6 0.00 0.00 0.00 85 1017.4
20260831054524 13 182 0.0 1.6 0.00 0.00 0.00 85 1017.5
20260831053023 13 182 0.0 1.6 0.00 0.00 0.00 85 1017.6
20260831051524 13 182 0.0 0.0 0.00 0.00 0.00 85 1017.6
20260831050022 13 182 0.0 3.2 0.00 0.00 0.00 85 1017.8
20260831044519 13 182 0.0 1.6 0.00 0.00 0.00 84 1017.8
20260831043018 14 182 0.0 0.0 0.00 0.00 0.00 83 1018.1
20260831041541 15 182 0.0 0.0 0.00 0.00 0.00 81 1018.1
20260831040018 15 182 0.0 1.6 0.00 0.00 0.00 80 1018.2
20260831034517 15 182 0.0 0.0 0.00 0.00 0.00 78 1018.1
20260831033022 16 182 0.0 0.0 0.00 0.00 0.00 75 1017.9
20260831031515 16 182 0.0 0.0 0.00 0.00 0.00 74 1017.9
20260831030016 17 182 0.0 0.0 0.00 0.00 0.00 72 1017.9
20260831024515 17 182 0.0 0.0 0.00 0.00 0.00 74 1017.9
20260831023014 17 182 0.0 0.0 0.00 0.00 0.00 73 1018.0
20260831021519 17 182 0.0 3.2 0.00 0.00 0.00 72 1018.1
20260831020014 17 182 0.0 4.8 0.00 0.00 0.00 71 1018.1
20260831014519 17 213 0.0 3.2 0.00 0.00 0.00 71 1018.1
20260831013010 17 212 0.0 4.8 0.00 0.00 0.00 69 1018.2
20260831011512 17 211 0.0 3.2 0.00 0.00 0.00 70 1018.3
20260831010009 17 160 0.0 8.0 0.00 0.00 0.00 69 1018.5
20260831004508 17 176 1.6 12.9 0.00 0.00 0.00 68 1018.5
20260831003007 17 161 0.0 8.0 0.00 0.00 0.00 69 1018.6
20260831001507 18 155 0.0 6.4 0.00 0.00 0.00 70 1018.7
20260831000006 18 213 0.0 4.8 0.00 0.00 0.00 70 1019.0
20260830234510 18 217 0.0 8.0 0.00 0.00 0.00 68 1019.1
20260830233014 18 198 0.0 3.2 0.00 0.00 0.00 68 1019.1
20260830231504 18 188 1.6 8.0 0.00 0.00 0.00 67 1019.3
20260830230007 18 186 4.8 9.7 0.00 0.00 0.00 67 1019.1
20260830224503 18 191 3.2 8.0 0.00 0.00 0.00 69 1019.3
20260830223002 18 185 4.8 11.3 0.00 0.00 0.00 70 1019.4
20260830221506 18 166 3.2 12.9 0.00 0.00 0.00 70 1019.4
20260830220002 18 160 1.6 12.9 0.00 0.00 0.00 69 1019.6
20260830214601 18 188 3.2 12.9 0.00 0.00 0.00 68 1019.6
20260830214500 18 167 3.2 12.9 0.00 0.00 0.00 69 1019.6
20260830213058 18 193 4.8 12.9 0.00 0.00 0.00 66 1019.7
20260830211601 18 184 4.8 12.9 0.00 0.00 0.00 70 1019.9
20260830210057 18 165 4.8 11.3 0.00 0.00 0.00 69 1019.8
20260830204554 18 186 1.6 11.3 0.00 0.00 0.00 71 1019.7
20260830203053 17 194 3.2 11.3 0.00 0.00 0.00 72 1019.7
20260830201552 17 187 3.2 14.5 0.00 0.00 0.00 72 1019.9
20260830200052 17 182 4.8 20.9 0.00 0.00 0.00 72 1019.8
20260830194603 18 184 3.2 11.3 0.00 0.03 0.00 71 1019.8
20260830193101 18 190 3.2 16.1 0.00 0.03 0.00 70 1019.8
20260830191546 17 159 4.8 12.9 0.00 0.03 0.00 73 1019.9
20260830190045 17 191 4.8 16.1 0.00 0.03 0.00 73 1020.0
20260830184643 16 171 3.2 12.9 0.00 0.03 0.00 74 1020.0
20260830183045 16 178 8.0 17.7 0.00 0.03 0.00 73 1020.1
20260830181539 16 158 4.8 17.7 0.00 0.03 0.00 75 1020.2
20260830180034 16 199 3.2 16.1 0.00 0.03 0.00 77 1020.0
20260830174538 15 189 8.0 16.1 0.00 0.03 0.00 77 1020.0
20260830173033 16 144 4.8 16.1 0.00 0.03 0.00 76 1020.0
20260830171535 15 309 3.2 17.7 0.00 0.03 0.00 77 1019.9
20260830170029 15 169 4.8 14.5 0.00 0.03 0.00 77 1019.8
20260830164530 15 169 4.8 19.3 0.00 0.03 0.00 78 1019.9
20260830163027 15 184 4.8 11.3 0.00 0.03 0.00 80 1019.9
20260830161522 15 208 4.8 12.9 0.00 0.03 0.00 80 1019.9
20260830160020 15 154 4.8 9.7 0.00 0.03 0.00 79 1019.9
20260830154520 15 174 3.2 12.9 0.00 0.03 0.00 81 1019.8
20260830153017 14 180 4.8 11.3 0.00 0.03 0.00 80 1019.7
20260830151516 14 200 1.6 8.0 0.00 0.03 0.00 82 1019.6
20260830150014 14 179 4.8 17.7 0.00 0.03 0.00 83 1019.6
20260830144514 14 190 3.2 14.5 0.00 0.03 0.00 82 1019.4
20260830143015 14 175 3.2 12.9 0.00 0.03 0.00 82 1019.5
20260830141507 14 192 8.0 17.7 0.00 0.03 0.00 82 1019.3
20260830140008 13 159 1.6 12.9 0.00 0.03 0.00 82 1019.1
20260830134509 13 186 1.6 12.9 0.00 0.03 0.00 83 1019.0
20260830133000 13 197 1.6 8.0 0.00 0.03 0.00 83 1018.9
20260830131600 13 200 3.2 12.9 0.00 0.03 0.00 83 1018.9
20260830130113 12 185 1.6 12.9 0.00 0.03 0.00 83 1018.9
20260830124600 12 196 1.6 6.4 0.00 0.05 0.00 84 1018.8
20260830123100 12 158 0.0 6.4 0.00 0.05 0.00 83 1018.9
20260830121602 12 180 0.0 0.0 0.00 0.05 0.00 82 1019.0